Home   Weather   Germany   Ludwigsfelde   Past weeks
Flag for Germany

Past Weather in Ludwigsfelde, Brandenburg, Germany — Yesterday and Last 2 Weeks

Currently: 37 °F. Partly sunny. (Weather station: Berlin-Schoenefeld, Germany). See more current weather

Past Weather in Ludwigsfelde — Graph

°F

Ludwigsfelde Temperature Yesterday

Maximum temperature yesterday: 39 °F (at 4:50 pm)
Minimum temperature yesterday: 30 °F (at 3:20 am)
Average temperature yesterday: 35 °F

High & Low Weather Summary for the Past Weeks

 TemperatureHumidityPressure
High66 °F (Feb 24, 3:20 pm)100% (Feb 14, 8:20 am)30.77 "Hg (Feb 14, 8:20 am)
Low5 °F (Feb 15, 5:50 am)42% (Feb 21, 2:50 pm)29.83 "Hg (Feb 17, 12:20 am)
Average41 °F82%30.29 "Hg
* Reported Feb 14 7:20 am — Mar 1 7:20 am, Ludwigsfelde. Weather by CustomWeather, © 2021

Note: Actual official high and low records may vary slightly from our data, if they occured in-between our weather recording intervals... More about our weather records

Ludwigsfelde Weather History for the Previous 24 Hours

Scroll right to see more
 ConditionsComfort  
Time TempWeatherWind HumidityBarometerVisibility
7:20 am
Mon, Mar 1
37 °FPartly sunny.6 mph93%30.60 "Hg5 mi
6:50 am37 °FPassing clouds.6 mph93%30.60 "Hg4 mi
6:20 am37 °FPassing clouds.6 mph93%30.57 "Hg4 mi
5:50 am37 °FPassing clouds.6 mph93%30.57 "Hg5 mi
5:20 am37 °FPassing clouds.6 mph93%30.57 "Hg6 mi
4:50 am37 °FPassing clouds.3 mph93%30.57 "Hg6 mi
4:20 am36 °FPassing clouds.3 mph100%30.57 "Hg5 mi
3:50 am36 °FPassing clouds.2 mph100%30.57 "Hg4 mi
3:20 am36 °FPassing clouds.5 mph100%30.57 "Hg4 mi
2:50 am36 °FPassing clouds.6 mph100%30.57 "Hg4 mi
2:20 am36 °FPassing clouds.6 mph100%30.57 "Hg5 mi
1:50 am37 °FPassing clouds.6 mph93%30.60 "Hg5 mi
1:20 am36 °FPassing clouds.3 mph100%30.60 "Hg5 mi
12:50 am36 °FPassing clouds.3 mph100%30.57 "Hg6 mi
12:20 am34 °FPassing clouds.7 mph100%30.57 "Hg6 mi
11:50 pm
Sun, Feb 28
36 °FPassing clouds.7 mph93%30.57 "HgN/A
11:20 pm36 °FPassing clouds.8 mph100%30.57 "HgN/A
10:50 pm37 °FPassing clouds.5 mph93%30.60 "HgN/A
10:20 pm37 °FPassing clouds.6 mph93%30.60 "HgN/A
9:50 pm37 °FPassing clouds.2 mph93%30.60 "HgN/A
9:20 pm37 °FPassing clouds.5 mph93%30.57 "HgN/A
8:50 pm37 °FPassing clouds.6 mph93%30.57 "HgN/A
8:20 pm37 °FPassing clouds.7 mph93%30.57 "HgN/A
7:50 pm39 °FPassing clouds.7 mph87%30.57 "HgN/A
7:20 pm39 °FPassing clouds.7 mph87%30.57 "HgN/A
6:50 pm39 °FMostly cloudy.1 mph87%30.57 "HgN/A
6:20 pm39 °FLow clouds.5 mph93%30.57 "HgN/A
5:50 pm39 °FLow clouds.6 mph93%30.57 "HgN/A
5:20 pm39 °FLow clouds.7 mph93%30.57 "HgN/A
4:50 pm39 °FLow clouds.7 mph93%30.57 "HgN/A
4:20 pm37 °FLow clouds.8 mph100%30.60 "HgN/A
3:50 pm37 °FLow clouds.8 mph93%30.60 "HgN/A
3:20 pm37 °FLow clouds.9 mph93%30.60 "HgN/A
2:50 pm37 °FLow clouds.9 mph93%30.60 "HgN/A
2:20 pm37 °FLow clouds.8 mph93%30.60 "HgN/A
1:50 pm36 °FLow clouds.9 mph93%30.60 "Hg5 mi
1:20 pm36 °FLow clouds.8 mph93%30.63 "Hg5 mi
12:50 pm36 °FFog.9 mph93%30.63 "Hg3 mi
12:20 pm36 °FFog.8 mph93%30.63 "Hg3 mi
11:50 am36 °FFog.6 mph93%30.63 "Hg3 mi
11:20 am36 °FFog.9 mph93%30.63 "Hg2 mi
10:50 am36 °FFog.8 mph93%30.63 "Hg1 mi
10:20 am36 °FFog.9 mph93%30.63 "Hg1 mi
9:50 am36 °FFog.10 mph93%30.60 "Hg1 mi
9:20 am36 °FFog.12 mph100%30.60 "Hg1 mi
8:50 am36 °FLow clouds.10 mph100%30.60 "Hg4 mi
8:20 am36 °FSunny.7 mph93%30.60 "Hg10 mi
Weather by CustomWeather, © 2021

See weather overview